Watford City, ND

7:22 PM CDT on October 20, 2017 (GMT -0500)
Watford City

Weather History for KS25 - December, 2012

Change the Weather History Date:

Thursday, December 13, 2012

  Actual Average (KISN) Record (KISN)
Temperature  
Mean Temperature 22 °F -  
Max Temperature 33 °F 24 °F 48 °F (1999)
Min Temperature 12 °F 4 °F -27 °F (1917)
Degree Days  
Heating Degree Days 42    
Moisture  
Dew Point 19 °F    
Average Humidity 90    
Maximum Humidity 100    
Minimum Humidity 79    
Precipitation  
Precipitation 0.00 in - - ()
Sea Level Pressure  
Sea Level Pressure 29.88 in    
Wind  
Wind Speed 8 mph (SE)    
Max Wind Speed 14 mph    
Max Gust Speed -    
Visibility 9 miles    
Events Snow    
Averages and records for this station are not official NWS values.
T = Trace of Precipitation, MM = Missing Value Source: NWS Daily Summary

Daily Weather History Graph

Daily Weather History Graph

Search for Another Location

Airport or City:

Trip Planner

Search our weather history database for the weather conditions in past years. The results will help you decide how hot, cold, wet, or windy it might be!

Date:

Astronomy

Dec. 13, 2012 Rise Set
Actual Time 8:34 AM CST 5:00 PM CST
Civil Twilight 7:58 AM CST 5:36 PM CST
Nautical Twilight 7:18 AM CST 6:16 PM CST
Astronomical Twilight 6:41 AM CST 6:53 PM CST
Moon 8:43 AM CST (12/13) 5:47 PM CST (12/13)
Length of Visible Light 9h 38m
Length of Day
8h 26m
New Moon, 0% of the Moon is Illuminated
Dec 13
New Moon
Dec 19
First Quarter
Dec 28
Full
Jan 4
Last Quarter
Jan 11
New

Hourly Weather History & Observations

Time (CST) Temp. Windchill Dew Point Humidity Pressure Visibility Wind Dir Wind Speed Gust Speed Precip Events Conditions
12:15 AM 14.0 °F 2.0 °F 10.4 °F 86% 29.89 in 10.0 mi East 9.2 mph - N/A   Overcast
12:35 AM 12.2 °F 0.7 °F 10.4 °F 92% 29.90 in 10.0 mi East 8.1 mph - N/A   Overcast
12:55 AM 14.0 °F 2.9 °F 10.4 °F 86% 29.90 in 10.0 mi East 8.1 mph - N/A   Overcast
1:15 AM 14.0 °F 0.5 °F 10.4 °F 86% 29.89 in 10.0 mi ESE 11.5 mph - N/A   Overcast
1:35 AM 14.0 °F 2.9 °F 10.4 °F 86% 29.89 in 10.0 mi East 8.1 mph - N/A   Overcast
1:55 AM 14.0 °F 3.9 °F 10.4 °F 86% 29.89 in 10.0 mi East 6.9 mph - N/A   Overcast
2:15 AM 14.0 °F - 10.4 °F 86% 29.90 in 10.0 mi Calm Calm - N/A   Overcast
2:35 AM 14.0 °F 6.5 °F 10.4 °F 86% 29.90 in 10.0 mi ENE 4.6 mph - N/A   Overcast
2:55 AM 14.0 °F 8.2 °F 10.4 °F 86% 29.92 in 10.0 mi NE 3.5 mph - N/A   Overcast
3:15 AM 14.0 °F 5.1 °F 8.6 °F 79% 29.92 in 10.0 mi East 5.8 mph - N/A   Overcast
3:35 AM 12.2 °F -1.8 °F 8.6 °F 85% 29.90 in 10.0 mi ESE 11.5 mph - N/A   Overcast
3:55 AM 14.0 °F 2.0 °F 10.4 °F 86% 29.91 in 10.0 mi ESE 9.2 mph - N/A   Overcast
4:15 AM 14.0 °F -0.8 °F 10.4 °F 86% 29.91 in 10.0 mi ESE 13.8 mph - N/A   Overcast
4:35 AM 14.0 °F 2.9 °F 10.4 °F 86% 29.91 in 10.0 mi SE 8.1 mph - N/A   Overcast
4:55 AM 14.0 °F - 10.4 °F 86% 29.91 in 10.0 mi Calm Calm - N/A   Overcast
5:15 AM 14.0 °F 6.5 °F 10.4 °F 86% 29.91 in 10.0 mi ESE 4.6 mph - N/A   Overcast
5:35 AM 14.0 °F 1.2 °F 10.4 °F 86% 29.91 in 10.0 mi SE 10.4 mph - N/A   Overcast
5:55 AM 14.0 °F 1.2 °F 10.4 °F 86% 29.91 in 10.0 mi ESE 10.4 mph - N/A   Overcast
6:15 AM 14.0 °F 0.5 °F 10.4 °F 86% 29.91 in 10.0 mi ESE 11.5 mph - N/A   Overcast
6:35 AM 14.0 °F 0.5 °F 10.4 °F 86% 29.91 in 10.0 mi ESE 11.5 mph - N/A   Overcast
6:55 AM 14.0 °F 2.0 °F 10.4 °F 86% 29.92 in 10.0 mi ESE 9.2 mph - N/A   Overcast
7:15 AM 15.8 °F 3.4 °F 12.2 °F 86% 29.91 in 10.0 mi ESE 10.4 mph - N/A   Overcast
7:35 AM 15.8 °F 5.1 °F 12.2 °F 86% 29.90 in 10.0 mi ESE 8.1 mph - N/A   Overcast
7:55 AM 15.8 °F 8.6 °F 12.2 °F 86% 29.91 in 10.0 mi East 4.6 mph - N/A   Overcast
8:15 AM 15.8 °F 7.2 °F 14.0 °F 93% 29.91 in 5.0 mi East 5.8 mph - N/A Snow Light Snow
8:35 AM 15.8 °F 7.2 °F 14.0 °F 93% 29.90 in 6.0 mi ESE 5.8 mph - N/A   Overcast
8:55 AM 17.6 °F 8.2 °F 14.0 °F 86% 29.90 in 9.0 mi ESE 6.9 mph - N/A   Overcast
9:15 AM 17.6 °F 9.3 °F 14.0 °F 86% 29.91 in 10.0 mi East 5.8 mph - N/A   Overcast
9:35 AM 17.6 °F 9.3 °F 14.0 °F 86% 29.91 in 9.0 mi East 5.8 mph - N/A   Overcast
9:55 AM 17.6 °F 9.3 °F 14.0 °F 86% 29.91 in 9.0 mi East 5.8 mph - N/A   Overcast
10:15 AM 17.6 °F 8.2 °F 15.8 °F 93% 29.91 in 9.0 mi ESE 6.9 mph - N/A   Overcast
10:35 AM 17.6 °F 8.2 °F 15.8 °F 93% 29.92 in 7.0 mi SE 6.9 mph - N/A   Overcast
10:55 AM 19.4 °F 11.5 °F 17.6 °F 93% 29.92 in 5.0 mi SE 5.8 mph - N/A   Overcast
11:15 AM 19.4 °F 11.5 °F 17.6 °F 93% 29.93 in 5.0 mi SE 5.8 mph - N/A   Overcast
11:35 AM 21.2 °F 12.6 °F 17.6 °F 86% 29.92 in 4.0 mi SE 6.9 mph - N/A   Overcast
11:55 AM 23.0 °F 15.8 °F 19.4 °F 86% 29.91 in 8.0 mi SSE 5.8 mph - N/A   Overcast
12:15 PM 23.0 °F 15.8 °F 19.4 °F 86% 29.90 in 8.0 mi SE 5.8 mph - N/A   Overcast
12:35 PM 23.0 °F 15.8 °F 19.4 °F 86% 29.90 in 8.0 mi ESE 5.8 mph - N/A   Overcast
12:55 PM 23.0 °F 14.7 °F 19.4 °F 86% 29.89 in 9.0 mi ESE 6.9 mph - N/A   Overcast
1:15 PM 23.0 °F 13.1 °F 19.4 °F 86% 29.88 in 8.0 mi ESE 9.2 mph - N/A   Overcast
1:35 PM 24.8 °F 16.9 °F 21.2 °F 86% 29.87 in 7.0 mi ESE 6.9 mph - N/A   Overcast
1:55 PM 24.8 °F 16.9 °F 21.2 °F 86% 29.87 in 8.0 mi ESE 6.9 mph - N/A   Overcast
2:15 PM 24.8 °F 17.9 °F 23.0 °F 93% 29.87 in 8.0 mi ESE 5.8 mph - N/A   Overcast
2:35 PM 26.6 °F 18.2 °F 23.0 °F 86% 29.86 in 8.0 mi ESE 8.1 mph - N/A   Overcast
2:55 PM 26.6 °F 18.2 °F 24.8 °F 93% 29.86 in 7.0 mi ESE 8.1 mph - N/A   Overcast
3:15 PM 26.6 °F 17.5 °F 24.8 °F 93% 29.85 in 8.0 mi SE 9.2 mph - N/A   Overcast
3:35 PM 28.4 °F 20.4 °F 26.6 °F 93% 29.84 in 8.0 mi ESE 8.1 mph - N/A   Overcast
3:55 PM 28.4 °F 22.2 °F 26.6 °F 93% 29.85 in 8.0 mi ESE 5.8 mph - N/A   Overcast
4:15 PM 28.4 °F 20.4 °F 26.6 °F 93% 29.84 in 8.0 mi ESE 8.1 mph - N/A   Overcast
4:35 PM 28.4 °F 20.4 °F 26.6 °F 93% 29.84 in 9.0 mi ESE 8.1 mph - N/A   Overcast
6:55 PM 33.8 °F 27.0 °F 32.0 °F 93% 29.83 in 10.0 mi South 8.1 mph - N/A   Overcast
7:15 PM 33.8 °F 27.7 °F 32.0 °F 93% 29.83 in 10.0 mi South 6.9 mph - N/A   Overcast
7:35 PM 33.8 °F 27.7 °F 32.0 °F 93% 29.83 in 10.0 mi South 6.9 mph - N/A   Overcast
7:55 PM 32.0 °F 27.5 °F 32.0 °F 100% 29.83 in 10.0 mi South 4.6 mph - N/A   Overcast
8:15 PM 32.0 °F 26.4 °F 32.0 °F 100% 29.82 in 10.0 mi South 5.8 mph - N/A   Overcast
8:35 PM 32.0 °F 25.6 °F 32.0 °F 100% 29.82 in 10.0 mi South 6.9 mph - N/A   Overcast
8:55 PM 32.0 °F 24.8 °F 32.0 °F 100% 29.82 in 10.0 mi South 8.1 mph - N/A   Overcast
9:15 PM 32.0 °F 25.6 °F 32.0 °F 100% 29.82 in 10.0 mi SSE 6.9 mph - N/A   Overcast
9:35 PM 32.0 °F 24.8 °F 32.0 °F 100% 29.81 in 10.0 mi SSE 8.1 mph - N/A   Overcast
9:55 PM 32.0 °F 25.6 °F 32.0 °F 100% 29.81 in 10.0 mi South 6.9 mph - N/A   Overcast
10:15 PM 32.0 °F 24.8 °F 32.0 °F 100% 29.81 in 10.0 mi SSE 8.1 mph - N/A   Overcast
10:35 PM 32.0 °F 24.2 °F 32.0 °F 100% 29.81 in 10.0 mi SSE 9.2 mph - N/A   Overcast
10:55 PM 32.0 °F 26.4 °F 32.0 °F 100% 29.81 in 10.0 mi SSE 5.8 mph - N/A   Overcast
11:15 PM 32.0 °F 24.2 °F 32.0 °F 100% 29.81 in 8.0 mi SSE 9.2 mph - N/A   Overcast
11:35 PM 30.2 °F 22.6 °F 30.2 °F 100% 29.81 in 8.0 mi South 8.1 mph - N/A   Overcast
11:55 PM 30.2 °F 23.4 °F 30.2 °F 100% 29.81 in 4.0 mi SSE 6.9 mph - N/A   Overcast